Location: Observatory Park - Geauga Park District
(41.5832°N, 81.0716°W)
Time: 13:57:41
(UTC-04:00)

N. Korean satellite - Pass Details

Date: 04 October 2021
Orbit: 450 x 495 km, 97.3° (Epoch: 17 October)

Event Time Altitude Azimuth Distance (km) Brightness Sun altitude
Rises 06:17:10 0° 19° (NNE) 2,557 10.6 -13.4°
Reaches altitude 10° 06:19:19 10° 27° (NNE) 1,679 9.7 -13.0°
Maximum altitude 06:22:45 40° 98° (E) 729 8.1 -12.4°
Drops below altitude 10° 06:26:11 10° 170° (S) 1,681 9.4 -11.7°
Sets 06:28:20 0° 178° (S) 2,561 10.2 -11.3°
